www.pogodaiklimat.ru

Погода и климат >> Архив погоды >> Коморские Острова >> Дзаудзи


ПОГОДА в Дзаудзи

  • Прогноз погоды в Дзаудзи
  • Монитор погоды в Дзаудзи

АРХИВ ПОГОДЫ в Дзаудзи

Время (UTC), дата Ветер
(напр.,м/с)
 
Видим.   Явления Облачность Т
(С)
Тd
(С)
f
(%)
Тe
(С)
Тes
(С)
Комфортность P
(гПа)
Po
(гПа)
Тmin
(С)
Tmax
(С)
R
(мм)
R24
(мм)
S
(см)
03 18.06 Ю 6
{9}
20 км н/о +25.6 +21.1 76 +32 +32 очень
душно
1017.1 1016.3
06 18.06 ЮВ 5
{8}
19 км н/о +28.7 +22.0 67 +37 +37 очень
душно
1018.4 1017.6 +25.1
09 18.06 ЮВ 5
{7}
16 км 8/8 600 м
[]
+29.3 +22.8 68 +39 +41 очень
душно
1017.4 1016.6
12 18.06 Ю 5
{7}
19 км н/о +29.2 +22.7 68 +39 +39 очень
душно
1015.6 1014.8
15 18.06 Ю 4
{6}
20 км н/о +26.1 +22.2 79 +34 +34 очень
душно
1016.4 1015.6
18 18.06 Ю 3
{5}
20 км н/о +25.5 +23.0 86 +34 +34 очень
душно
1017.7 1016.9 +29.9
21 18.06 С 1
{3}
20 км 8/0
[]
+24.4 +23.2 93 +33 +33 очень
душно
1018.0 1017.2
00 19.06 ЮЗ 5
{8}
7000 м слаб. дождь 10/10 300 м
[]
+22.7 +22.0 96 +31 +31 очень
душно
1017.2 1016.4 4
03 19.06 ЮЗ 3
{5}
20 км 10/0
[]
+23.7 +22.1 91 +31 +31 очень
душно
1016.2 1015.4 0.0
06 19.06 ЮЗ 2
{3}
20 км 10/10 600 м
[]
+26.7 +23.4 82 +36 +36 очень
душно
1017.6 1016.8 +22.4 4
09 19.06 Ю 5
{8}
19 км н/о +29.2 +22.7 68 +39 +39 очень
душно
1016.9 1016.1
12 19.06 Ю 4
{7}
20 км н/о +28.5 +21.3 65 +36 +36 очень
душно
1015.3 1014.5
15 19.06 Ю 5
{7}
20 км н/о +25.6 +21.3 77 +32 +32 очень
душно
1015.8 1015.0
18 19.06 Ю 6
{9}
20 км н/о +25.6 +21.9 80 +33 +33 очень
душно
1017.3 1016.5 +29.2
21 19.06 Ю 6
{8}
20 км н/о +25.6 +21.3 77 +32 +32 очень
душно
1016.7 1015.9
00 20.06 Ю 8
{11}
20 км 9/9 600 м
[]
+25.9 +21.6 77 +33 +33 очень
душно
1015.5 1014.7
03 20.06 Ю 7
{10}
20 км н/о +25.8 +21.7 78 +33 +33 очень
душно
1015.9 1015.1
06 20.06 Ю 7
{10}
20 км н/о +28.4 +21.7 67 +36 +36 очень
душно
1017.1 1016.3 +25.4
09 20.06 Ю 8
{11}
20 км н/о +29.5 +21.5 62 +37 +37 очень
душно
1016.0 1015.2
12 20.06 Ю 5
{8}
20 км 9/0
[]
+28.0 +21.3 67 +35 +37 очень
душно
1014.7 1013.9
15 20.06 Ю 4
{6}
20 км 10/0
[]
+26.0 +20.8 73 +33 +33 очень
душно
1015.5 1014.7
18 20.06 Ю 5
{7}
20 км 10/0
[]
+26.0 +21.0 74 +33 +33 очень
душно
1017.2 1016.4 +29.7 0.0
21 20.06 Ю 4
{6}
20 км 10/0
[]
+25.9 +21.1 75 +33 +33 очень
душно
1016.7 1015.9
00 21.06 Ю 4
{5}
20 км 10/0
[]
+25.6 +20.4 73 +32 +32 очень
душно
1015.5 1014.7
03 21.06 ЮВ 4
{6}
20 км 10/0 2000 м
[]
+25.2 +19.8 72 +31 +31 очень
душно
1016.2 1015.4
06 21.06 С 2
{9}
20 км 10/10 1000 м
[]
+22.4 +20.9 91 +29 +29 очень
душно
1018.7 1017.9 +24.8 4
09 21.06 С 2
{4}
20 км 10/0
[]
+25.9 +20.2 71 +32 +40 очень
душно
1017.2 1016.4
12 21.06 Ю 3
{5}
20 км н/о +27.4 +21.2 69 +35 +35 очень
душно
1015.8 1015.0
15 21.06 Ю 3
{4}
20 км н/о +25.0 +20.5 76 +31 +31 очень
душно
1016.0 1015.2
18 21.06 Ю 3
{5}
20 км 8/8 600 м
[]
+24.7 +21.6 83 +32 +32 очень
душно
1017.0 1016.2 +27.5
21 21.06 З 3
{5}
20 км 8/8 600 м
[]
+25.1 +22.0 83 +32 +32 очень
душно
1016.0 1015.2
00 22.06 ЮЗ 1
{3}
20 км н/о +22.3 +20.9 92 +29 +29 очень
душно
1014.5 1013.7
03 22.06 ЮЗ 3
{6}
20 км н/о +24.7 +21.8 84 +32 +32 очень
душно
1014.9 1014.1
06 22.06 ЮЗ 7
{10}
20 км 10/10 1500 м
[]
+27.5 +22.0 72 +36 +36 очень
душно
1016.0 1015.2 +22.0
09 22.06 Ю 6
{9}
20 км 9/9 300 м
[]
+27.7 +22.6 74 +37 +37 очень
душно
1015.4 1014.6
12 22.06 Ю 6
{8}
20 км н/о +28.3 +22.8 72 +38 +38 очень
душно
1014.0 1013.2
15 22.06 Ю 4
{8}
20 км 9/0 2000 м
[]
+25.9 +22.8 83 +34 +34 очень
душно
1014.6 1013.8
18 22.06 Ю 4
{6}
20 км 10/10 600 м
[]
+26.1 +22.8 82 +35 +35 очень
душно
1015.8 1015.0 +28.8 0.0
21 22.06 Ю 3
{5}
20 км 9/9 600 м
[]
+25.5 +22.4 83 +33 +33 очень
душно
1014.6 1013.8
00 23.06 ЮЗ 3
{5}
20 км н/о +25.2 +22.9 87 +33 +33 очень
душно
1013.0 1012.2
03 23.06 ЮЗ 3
{5}
20 км 10/0 2000 м
[]
+24.3 +22.7 91 +32 +32 очень
душно
1014.0 1013.2
06 23.06 ЮЗ 4
{6}
20 км 9/0
[]
+27.7 +23.9 80 +38 +41 очень
душно
1015.3 1014.5 +23.5 0.0
09 23.06 Ю 5
{8}
20 км н/о +29.1 +23.3 71 +39 +39 очень
душно
1014.2 1013.4
12 23.06 Ю 5
{8}
20 км н/о +28.5 +23.2 73 +38 +38 очень
душно
1012.8 1012.0
15 23.06 Ю 3
{5}
20 км н/о +25.9 +22.4 81 +34 +34 очень
душно
1013.5 1012.7
18 23.06 ЮЗ 4
{5}
20 км н/о +25.5 +23.2 87 +34 +34 очень
душно
1014.5 1013.7 +29.9
21 23.06 ЮЗ 5
{6}
20 км н/о +25.1 +22.8 87 +33 +33 очень
душно
1013.9 1013.1
00 24.06 С 1
{2}
20 км н/о +23.0 +20.9 88 +30 +30 очень
душно
1012.7 1011.9
03 24.06 ЮЗ 3
{7}
20 км н/о +24.9 +23.0 89 +33 +33 очень
душно
1014.0 1013.2
06 24.06 Ю 4
{6}
19 км н/о +28.4 +22.9 72 +38 +38 очень
душно
1015.3 1014.5 +22.9
12 24.06 Ю 4
{7}
20 км н/о +28.5 +23.0 72 +38 +38 очень
душно
1012.3 1011.5
15 24.06 Ю 4
{6}
20 км н/о +26.0 +22.3 80 +34 +34 очень
душно
1013.4 1012.6
18 24.06 Ю 3
{5}
20 км н/о +25.3 +22.4 84 +33 +33 очень
душно
1014.6 1013.8 +29.5
21 24.06 Ю 2
{4}
20 км н/о +24.8 +22.3 86 +32 +32 очень
душно
1014.3 1013.5
00 25.06 З 3
{4}
20 км н/о +24.2 +22.8 92 +32 +32 очень
душно
1013.0 1012.2

 

Местоположение метеостанции Дзаудзи (Коморские Острова): широта -12.80 долгота 45.28 высота над уровнем моря 7 м.

В архиве по умолчанию представлена погода в Дзаудзи за последнюю неделю. Архивные данные за месяц целиком и за предыдущие месяцы, начиная с января 2011 года, Вы можете получить, выбрав интересующий диапазон дат из раскрывающегося списка и нажав кнопку "Ввод!".


*Определитесь, кто Вы:
робот инопланетянин человек

Внимание! Время в таблицах - всемирное. Для получения местного времени необходимо прибавить поправку, которая равна 3 ч.

Смотрите также архив погоды в соседних городах и на ближайших метеорологических станциях:

Погода на Острове Глорьёз (Реюньон) (254 км)
Погода в Морони (Коморские Острова) (260 км)
Погода в Аэропорту Fascene (Мадагаскар) (334 км)
Погода в Махадзанге (Мадагаскар) (338 км)
Погода в Анцухихи (Мадагаскар) (372 км)
Погода в Анциранане (Мадагаскар) (439 км)
Погода в Бесалампи (Мадагаскар) (448 км)
Погода в Пембе (Мадагаскар) (515 км)
Погода на Острове Жуан-ди-Нова (Реюньон) (543 км)
Погода в Самбаве (Мадагаскар) (554 км)

Пояснения к столбцам:

Ветер - указаны скорость ветра в м/с - средняя за 10 мин, порывы в срок и между сроками (в фигурных скобках) и направление, откуда дует ветер: С - северный, СВ - северо-восточный, В - восточный, ЮВ - юго-восточный, Ю - южный, ЮЗ - юго-западный, З - западный, СЗ - северо-западный.
Видимость - горизонтальная дальность видимости в метрах или километрах. При видимости от 1 до 10 км при отсутствии осадков обычно наблюдается дымка, при ухудшении видимости до 1 км и менее - туман. В сухую погоду видимость может ухудшаться дымом, пылью или мглою.
Явления - указаны атмосферные явления, наблюдавшиеся в срок или в последний час перед сроком; фигурными скобками обозначены явления, наблюдавшиеся между сроками (за 1-3 часа до срока); квадратными скобками обозначены град или гололедные отложения с указанием их диаметра в мм.
Облачность - указаны через наклонную черту общая и нижняя облачность в баллах и высота нижней границы облаков в метрах; квадратными скобками обозначены формы облаков: Ci - перистые, Cs - перисто-слоистые, Cc - перисто-кучевые, Ac - высококучевые, As - высокослоистые, Sc - слоисто-кучевые, Ns - слоисто-дождевые, Cu - кучевые, Cb - кучево-дождевые. Подробнее классификацию облаков см. в Атласе облаков (PDF).
T - Температура воздуха - температура, измеренная на высоте 2 м над землей.
Td - Температура точки росы - температура, при понижении до которой содержащийся в воздухе водяной пар достигнет насыщения.
f - Относительная влажность воздуха - влажноcть воздуха, измеренная на высоте 2 м над землей.
Te - Эффективная температура - температура, которую ощущает одетый по сезону человек в тени. Характеристика душности погоды. При расчете учитывается влияние влажности воздуха и скорости ветра на теплоощущения человека.
Tes - Эффективная температура на солнце - температура, которую ощущает человек, с поправкой на солнечный нагрев. Характеристика знойности погоды. Зависит от высоты солнца над горизонтом, облачности и скорости ветра. Ночью, в пасмурную погоду, а также при ветре 12 м/с и более поправка равна нулю.
P - Атмосферное давление - приведенное к уровню моря атмосферное давление.
Po - Атмосферное давление - измеренное на уровне метеостанции атмосферное давление.
Tmin - Минимальная температура - минимум температуры воздуха на высоте 2 м над землей.
Tmax - Максимальная температура - максимум температуры воздуха на высоте 2 м над землей.
R - Количество осадков - Количество выпавших осадков за период времени, мм. При наведении курсора мыши на число - период времени, за который выпало указанное количество осадков.
R24 - Количество осадков - Количество выпавших осадков за 24 часа, мм.
S - Снежный покров - Высота снежного покрова, см. При наведении курсора мыши на число - состояние снежного покрова и степень покрытия местности в баллах.